Time,TemperatureF,DewpointF,PressureIn,WindDirection,WindDirectionDegrees,WindSpeedMPH,WindSpeedGustMPH,Humidity,HourlyPrecipIn,Conditions,Clouds,dailyrainin,SolarRadiationWatts/m^2,SoftwareType,DateUTC
2013-03-10 00:21:00,28.0,12.0,-100.00,NNW,334,6.0,14.0,50,0.00,,,0.00,0.000000,,2013-03-10 07:21:00,
2013-03-10 00:32:00,28.0,12.0,-100.00,NNW,334,6.0,14.0,50,0.00,,,0.00,0.000000,,2013-03-10 07:32:00,
2013-03-10 00:42:00,28.0,12.0,-100.00,NNW,334,6.0,14.0,50,0.00,,,0.00,0.000000,,2013-03-10 07:42:00,
2013-03-10 00:52:00,28.0,12.0,-100.00,NNW,334,6.0,14.0,50,0.00,,,0.00,0.000000,,2013-03-10 07:52:00,
2013-03-10 01:21:00,26.0,12.0,-100.00,NW,322,4.0,10.0,56,0.00,,,0.00,0.000000,,2013-03-10 08:21:00,
2013-03-10 01:31:00,26.0,12.0,-100.00,NW,322,4.0,10.0,56,0.00,,,0.00,0.000000,,2013-03-10 08:31:00,
2013-03-10 01:42:00,26.0,12.0,-100.00,NW,322,4.0,10.0,56,0.00,,,0.00,0.000000,,2013-03-10 08:42:00,
2013-03-10 01:51:00,26.0,12.0,-100.00,NW,322,4.0,10.0,56,0.00,,,0.00,0.000000,,2013-03-10 08:51:00,
2013-03-10 03:21:00,24.0,11.0,-100.00,NNW,328,4.0,8.0,56,0.00,,,0.00,0.000000,,2013-03-10 09:21:00,
2013-03-10 03:31:00,24.0,11.0,-100.00,NNW,328,4.0,8.0,56,0.00,,,0.00,0.000000,,2013-03-10 09:31:00,
2013-03-10 03:41:00,24.0,11.0,-100.00,NNW,328,4.0,8.0,56,0.00,,,0.00,0.000000,,2013-03-10 09:41:00,
2013-03-10 03:51:00,24.0,11.0,-100.00,NNW,328,4.0,8.0,56,0.00,,,0.00,0.000000,,2013-03-10 09:51:00,
2013-03-10 04:21:00,24.0,10.0,-100.00,NW,326,4.0,9.0,55,0.00,,,0.00,0.000000,,2013-03-10 10:21:00,
2013-03-10 04:32:00,24.0,10.0,-100.00,NW,326,4.0,9.0,55,0.00,,,0.00,0.000000,,2013-03-10 10:32:00,
2013-03-10 04:42:00,24.0,10.0,-100.00,NW,326,4.0,9.0,55,0.00,,,0.00,0.000000,,2013-03-10 10:42:00,
2013-03-10 04:52:00,24.0,10.0,-100.00,NW,326,4.0,9.0,55,0.00,,,0.00,0.000000,,2013-03-10 10:52:00,
2013-03-10 08:21:00,18.0,11.0,-100.00,North,5,3.0,6.0,72,-99.99,,,0.00,10.000000,,2013-03-10 14:21:00,
2013-03-10 08:32:00,18.0,11.0,-100.00,North,5,3.0,6.0,72,-99.99,,,0.00,10.000000,,2013-03-10 14:32:00,
2013-03-10 08:41:00,18.0,11.0,-100.00,North,5,3.0,6.0,72,-99.99,,,0.00,10.000000,,2013-03-10 14:41:00,
2013-03-10 08:51:00,18.0,11.0,-100.00,North,5,3.0,6.0,72,-99.99,,,0.00,10.000000,,2013-03-10 14:51:00,
2013-03-10 09:21:00,24.0,12.0,-100.00,NNW,339,2.0,8.0,59,0.00,,,0.00,138.000000,,2013-03-10 15:21:00,
2013-03-10 09:32:00,24.0,12.0,-100.00,NNW,339,2.0,8.0,59,0.00,,,0.00,138.000000,,2013-03-10 15:32:00,
2013-03-10 09:42:00,24.0,12.0,-100.00,NNW,339,2.0,8.0,59,0.00,,,0.00,138.000000,,2013-03-10 15:42:00,
2013-03-10 09:51:00,24.0,12.0,-100.00,NNW,339,2.0,8.0,59,0.00,,,0.00,138.000000,,2013-03-10 15:51:00,
2013-03-10 10:21:00,29.0,9.0,-100.00,NW,305,4.0,7.0,43,0.00,,,0.00,404.000000,,2013-03-10 16:21:00,
2013-03-10 10:32:00,29.0,9.0,-100.00,NW,305,4.0,7.0,43,0.00,,,0.00,404.000000,,2013-03-10 16:32:00,
2013-03-10 10:41:00,29.0,9.0,-100.00,NW,305,4.0,7.0,43,0.00,,,0.00,404.000000,,2013-03-10 16:41:00,
2013-03-10 10:51:00,29.0,9.0,-100.00,NW,305,4.0,7.0,43,0.00,,,0.00,404.000000,,2013-03-10 16:51:00,
2013-03-10 12:22:00,37.0,5.0,-100.00,WNW,295,5.0,11.0,26,-99.99,,,0.00,688.000000,,2013-03-10 18:22:00,
2013-03-10 12:32:00,37.0,5.0,-100.00,WNW,295,5.0,11.0,26,-99.99,,,0.00,688.000000,,2013-03-10 18:32:00,
2013-03-10 12:42:00,37.0,5.0,-100.00,WNW,295,5.0,11.0,26,-99.99,,,0.00,688.000000,,2013-03-10 18:42:00,
2013-03-10 12:52:00,37.0,5.0,-100.00,WNW,295,5.0,11.0,26,-99.99,,,0.00,688.000000,,2013-03-10 18:52:00,
2013-03-10 13:21:00,40.0,4.0,-100.00,West,270,5.0,12.0,22,0.00,,,0.00,743.000000,,2013-03-10 19:21:00,
2013-03-10 13:32:00,40.0,4.0,-100.00,West,270,5.0,12.0,22,0.00,,,0.00,743.000000,,2013-03-10 19:32:00,
2013-03-10 13:42:00,40.0,4.0,-100.00,West,270,5.0,12.0,22,0.00,,,0.00,743.000000,,2013-03-10 19:42:00,
2013-03-10 13:52:00,40.0,4.0,-100.00,West,270,5.0,12.0,22,0.00,,,0.00,743.000000,,2013-03-10 19:52:00,
2013-03-10 14:22:00,43.0,2.0,-100.00,WNW,293,6.0,15.0,18,0.00,,,0.00,778.000000,,2013-03-10 20:22:00,
2013-03-10 14:32:00,43.0,2.0,-100.00,WNW,293,6.0,15.0,18,0.00,,,0.00,778.000000,,2013-03-10 20:32:00,
2013-03-10 14:42:00,43.0,2.0,-100.00,WNW,293,6.0,15.0,18,0.00,,,0.00,778.000000,,2013-03-10 20:42:00,
2013-03-10 14:52:00,43.0,2.0,-100.00,WNW,293,6.0,15.0,18,0.00,,,0.00,778.000000,,2013-03-10 20:52:00,
2013-03-10 15:23:00,47.0,3.0,-100.00,WNW,303,4.0,12.0,16,0.00,,,0.00,726.000000,,2013-03-10 21:23:00,
2013-03-10 15:32:00,47.0,3.0,-100.00,WNW,303,4.0,12.0,16,0.00,,,0.00,726.000000,,2013-03-10 21:32:00,
2013-03-10 15:42:00,47.0,3.0,-100.00,WNW,303,4.0,12.0,16,0.00,,,0.00,726.000000,,2013-03-10 21:42:00,
2013-03-10 15:52:00,47.0,3.0,-100.00,WNW,303,4.0,12.0,16,0.00,,,0.00,726.000000,,2013-03-10 21:52:00,
2013-03-10 16:22:00,46.0,0.0,-100.00,SSE,154,4.0,9.0,14,0.00,,,0.00,396.000000,,2013-03-10 22:22:00,
2013-03-10 16:32:00,46.0,0.0,-100.00,SSE,154,4.0,9.0,14,0.00,,,0.00,396.000000,,2013-03-10 22:32:00,
2013-03-10 16:43:00,46.0,0.0,-100.00,SSE,154,4.0,9.0,14,0.00,,,0.00,396.000000,,2013-03-10 22:43:00,
2013-03-10 16:52:00,46.0,0.0,-100.00,SSE,154,4.0,9.0,14,0.00,,,0.00,396.000000,,2013-03-10 22:52:00,
2013-03-10 17:23:00,43.0,10.0,-100.00,SSE,157,5.0,11.0,25,0.00,,,0.00,42.000000,,2013-03-10 23:23:00,
2013-03-10 17:33:00,43.0,10.0,-100.00,SSE,157,5.0,11.0,25,0.00,,,0.00,42.000000,,2013-03-10 23:33:00,
2013-03-10 17:42:00,43.0,10.0,-100.00,SSE,157,5.0,11.0,25,0.00,,,0.00,42.000000,,2013-03-10 23:42:00,
2013-03-10 17:52:00,43.0,10.0,-100.00,SSE,157,5.0,11.0,25,0.00,,,0.00,42.000000,,2013-03-10 23:52:00,
2013-03-10 18:23:00,42.0,10.0,-100.00,South,181,4.0,9.0,27,0.00,,,0.00,257.000000,,2013-03-11 00:23:00,
2013-03-10 18:33:00,42.0,10.0,-100.00,South,181,4.0,9.0,27,0.00,,,0.00,257.000000,,2013-03-11 00:33:00,
2013-03-10 18:43:00,42.0,10.0,-100.00,South,181,4.0,9.0,27,0.00,,,0.00,257.000000,,2013-03-11 00:43:00,
2013-03-10 18:52:00,42.0,10.0,-100.00,South,181,4.0,9.0,27,0.00,,,0.00,257.000000,,2013-03-11 00:52:00,
2013-03-10 19:23:00,35.0,7.0,-100.00,SSW,202,4.0,8.0,30,0.00,,,0.00,67.000000,,2013-03-11 01:23:00,
2013-03-10 19:32:00,35.0,7.0,-100.00,SSW,202,4.0,8.0,30,0.00,,,0.00,67.000000,,2013-03-11 01:32:00,
2013-03-10 19:42:00,35.0,7.0,-100.00,SSW,202,4.0,8.0,30,0.00,,,0.00,67.000000,,2013-03-11 01:42:00,
2013-03-10 19:52:00,35.0,7.0,-100.00,SSW,202,4.0,8.0,30,0.00,,,0.00,67.000000,,2013-03-11 01:52:00,
2013-03-10 20:23:00,31.0,5.0,-100.00,WNW,282,3.0,6.0,32,0.00,,,0.00,1.000000,,2013-03-11 02:23:00,
2013-03-10 20:32:00,31.0,5.0,-100.00,WNW,282,3.0,6.0,32,0.00,,,0.00,1.000000,,2013-03-11 02:32:00,
2013-03-10 20:42:00,31.0,5.0,-100.00,WNW,282,3.0,6.0,32,0.00,,,0.00,1.000000,,2013-03-11 02:42:00,
2013-03-10 20:52:00,31.0,5.0,-100.00,WNW,282,3.0,6.0,32,0.00,,,0.00,1.000000,,2013-03-11 02:52:00,
2013-03-10 21:22:00,31.0,3.0,-100.00,East,99,3.0,7.0,29,0.00,,,0.00,0.000000,,2013-03-11 03:22:00,
2013-03-10 21:32:00,31.0,3.0,-100.00,East,99,3.0,7.0,29,0.00,,,0.00,0.000000,,2013-03-11 03:32:00,
2013-03-10 21:42:00,31.0,3.0,-100.00,East,99,3.0,7.0,29,0.00,,,0.00,0.000000,,2013-03-11 03:42:00,
2013-03-10 21:52:00,31.0,3.0,-100.00,East,99,3.0,7.0,29,0.00,,,0.00,0.000000,,2013-03-11 03:52:00,
2013-03-10 22:22:00,31.0,3.0,-100.00,NE,45,3.0,5.0,29,0.00,,,0.00,0.000000,,2013-03-11 04:22:00,
2013-03-10 22:32:00,31.0,3.0,-100.00,NE,45,3.0,5.0,29,0.00,,,0.00,0.000000,,2013-03-11 04:32:00,
2013-03-10 22:42:00,31.0,3.0,-100.00,NE,45,3.0,5.0,29,0.00,,,0.00,0.000000,,2013-03-11 04:42:00,
2013-03-10 22:52:00,31.0,3.0,-100.00,NE,45,3.0,5.0,29,0.00,,,0.00,0.000000,,2013-03-11 04:52:00,
2013-03-10 23:22:00,28.0,4.0,-100.00,NW,326,1.0,4.0,35,0.00,,,0.00,0.000000,,2013-03-11 05:22:00,
2013-03-10 23:32:00,28.0,4.0,-100.00,NW,326,1.0,4.0,35,0.00,,,0.00,0.000000,,2013-03-11 05:32:00,
2013-03-10 23:42:00,28.0,4.0,-100.00,NW,326,1.0,4.0,35,0.00,,,0.00,0.000000,,2013-03-11 05:42:00,
2013-03-10 23:52:00,28.0,4.0,-100.00,NW,326,1.0,4.0,35,0.00,,,0.00,0.000000,,2013-03-11 05:52:00,